Regional Weather Roundup
Issued by NWS Little Rock, AR

Home | Current Version | Previous Version | Graphics & Text | Print | Product List | Glossary On
Versions: 1 2 3 4 5 6 7 8 9 10 11 12 13 14 15 16 17 18 19 20 21 22 23 24 25 26 27 28 29 30 31 32 33 34 35 36 37 38 39 40 41 42 43 44 45 46 47 48 49
000
ASUS44 KLZK 251105
RWRLZK

WEATHER ROUNDUP FOR ARKANSAS
NATIONAL WEATHER SERVICE LITTLE ROCK AR
600 AM CDT WED MAY 25 2016

NOTE: "FAIR" INDICATES FEW OR NO CLOUDS BELOW 12,000 FEET WITH NO
SIGNIFICANT WEATHER AND/OR OBSTRUCTIONS TO VISIBILITY.

ARZ001-003-010-029-251200-
NORTHWEST ARKANSAS

CITY           SKY/WX    TMP DP  RH WIND       PRES   REMARKS
FAYETTEVILLE   CLOUDY    62  61  96 CALM      30.01F
FORT SMITH     TSTM      68  64  87 E5        29.98F
HARRISON       TSTM      64  61  90 W12G21    30.09R
BENTONVILLE    CLOUDY    64  57  77 S9        30.03R
SILOAM SPGS    CLOUDY    63  54  72 SE9       30.00F
HIGHFILL       CLOUDY    65  63  93 SE12      30.02F
SPRINGDALE     MOCLDY    63  63 100 E7        30.05
$$

ARZ004-005-016-251200-
NORTH CENTRAL ARKANSAS

CITY           SKY/WX    TMP DP  RH WIND       PRES   REMARKS
BATESVILLE     CLOUDY    66  63  88 S7        30.06R
FLIPPIN        CLOUDY   N/A N/A N/A SW8       30.02R
MTN HOME       LGT RAIN  62  61  96 VRB3      30.04R
$$

ARZ040-041-251200-
WEST CENTRAL ARKANSAS

CITY           SKY/WX    TMP DP  RH WIND       PRES   REMARKS
MENA           CLOUDY    66  64  94 CALM      30.07F
MOUNT IDA      CLOUDY    69  65  86 CALM      30.03R
$$

ARZ009-017-025-026-028-251200-
NORTHEAST ARKANSAS

CITY           SKY/WX    TMP DP  RH WIND       PRES   REMARKS
CORNING          N/A     63  63 100 CALM      30.08R
JONESBORO      CLOUDY    65  64  97 SE3       30.06R
NEWPORT        CLOUDY    65  65 100 S3        30.07R
WALNUT RIDGE   CLOUDY    63  61  94 CALM      30.06R
BLYTHEVILLE    PTCLDY    65  63  93 SE5       30.08R
$$

ARZ022-023-033-042-044-251200-
CENTRAL ARKANSAS

CITY           SKY/WX    TMP DP  RH WIND       PRES   REMARKS
LITTLE ROCK    CLOUDY    69  62  78 CALM      30.06R
N LITTLE ROCK    N/A     67  62  84 CALM      30.04R
JACKSONVILLE   CLOUDY    69  63  81 NW3       30.06R
SEARCY         CLOUDY    64  64 100 CALM      30.09R
HOT SPRINGS    LGT RAIN  69  67  93 CALM      30.04R
RUSSELLVILLE   TSTM      67  65  93 N9        30.06R
CLINTON        MOCLDY    64  64 100 CALM      30.09R
$$

ARZ036-251200-
EAST ARKANSAS

CITY           SKY/WX    TMP DP  RH WIND       PRES   REMARKS
WEST MEMPHIS   CLOUDY    65  63  93 S6        30.07R
$$

ARZ050-053-066-070-073-251200-
SOUTHWEST ARKANSAS

CITY           SKY/WX    TMP DP  RH WIND       PRES   REMARKS
ARKADELPHIA    PTSUNNY   70  70 100 CALM      30.04R
CAMDEN         CLOUDY    72  64  78 CALM      30.03R
TEXARKANA      CLOUDY    75  71  87 S9        30.01R
EL DORADO      CLOUDY    73  72  96 S6        30.04R
DE QUEEN       CLOUDY    76  73  91 CALM      30.01R
$$

ARZ056-057-069-251200-
SOUTHEAST ARKANSAS

CITY           SKY/WX    TMP DP  RH WIND       PRES   REMARKS
PINE BLUFF     CLOUDY    68  63  84 SE3       30.05R
STUTTGART      MOCLDY    70  61  73 S14       30.06R
MONTICELLO     CLOUDY    69  64  84 CALM      30.06R

$$





USA.gov is the U.S. government's official web portal to all federal, state and local government web resources and services.